SCP
0 0 0 0 0 0 0 0 0 0 0 0 0 0 0 0 0 0 0 0 0 0 0 0 0 0 0 0 0 0 0 0 0 0 0 0 0 0
0 0 0 0 0 0 0 0 0 0 0 0 0 0 0 0 0 0 0 0 0 0 0 0 0 0 0 0 0 0 0 0 0 0 0 0 0 0
0 0 0 0 0 0 0 0 0 0 0 0 0 0 0 0 0 0 0 0 0 0 0 0 0 0 0 0 0 0 0 0 0 0 0 0 0 0
0 0 0 0 0 0 0 0 0 0 0 0 0 0 0 0 0 0 0 0 0 0 0 0 0 0 0 0 0 0 0 0 0 0 0 0 0 0
0 0 0 0 0 0 0 0 0 0 0 0 0 0 0 0 0 0 0 0 0 0 0 0 0 0 0 0 0 0 0 0 0 0 0 0 0 0
0 0 0 0 0 0 0 0 0 0 0 0 0 0 0 0 0 0 0 0 0 0 0 0 0 0 0 0 0 0 0 0 0 0 -0 0 0 0
0 0 0 0 0 0 0 0 0 0 0 0 0 0 0 0 0 0 0 0 0 0 0 0 0 0 0 0 0 0 0 0 0 0 0 0 0 0
0 0 0 0 0 0 0 0 0 0 0 0 0 0 0 0 0 0 0 0 0 0 0 0 0 0 0 0 0 0 0 0 0 0 0 0 0 0
0 0 0 0 0 0 0 0 0 0 0 0 0 0 0 0 0 0 0 0 0 0 0 0 0 0 0 0 0 0 0 0 0 0 0 0 0 0
0 0 0 0 0 0 0 0 0 0 0 0 0 0 0 0 0 0 0 0 0 0 0 0 0 0 0 0 0 0 0 0 0 0 0 0 0 0
0 0 0 0 0 0 0 0 0 0 0 0 0 0 0 0 0 0 0 0 0 0 0 0 0 0 0 0 0 0 0 0 0 0 0 0 0 0
0 0 0 0 0 0 0 0 0 0 0 0 0 0 0 0 0 0 0 0 0 0 0 0 0 0 0 0 0 0 0 0 0 0 0 0 0 0
1 0 0 0 0 0 0 0 0 0 0 0 0 0 0 0 0 0 0 0 0 0 0 0 0 0 0 0 0 0 0 0 0 0 0 0 0 0
1 0 0 0 0 0 0 0 0 0 0 0 0 0 0 0 0 0 0 0 0 0 0 0 0 0 0 0 0 0 0 0 0 0 0 0 0 0
0 0 0 0 0 0 0 0 0 0 0 0 0 0 0 0 0 0 0 0 0 0 0 0 0 0 0 0 0 0 0 0 0 0 0 0 0 0
0 0 0 0 0 0 0 0 0 0 0 0 0 0 0 0 0 0 0 0 0 0 0 0 0 0 0 0 0 0 0 0 0 0 0 0 0 0
0 0 0 0 0 0 0 0 0 0 0 0 0 0 0 0 0 0 0 0 0 0 0 0 0 0 0 0 0 0 0 0 0 0 0 0 0 0
0 0 0 0 0 0 0 0 0 0 0 0 0 0 0 0 0 0 0 0 0 0 0 0 0 0 0 0 0 0 0 0 0 0 0 0 0 0
0 0 0 0 0 0 0 0 0 0 0 0 0 0 0 0 0 0 0 0 0 0 0 0 0 0 0 0 0 0 0 0 0 0 0 0 0 0
0 0 0 0 0 0 0 0 0 0 0 0 0 0 0 0 0 0 0 0 0 0 0 0 0 0 0 0 0 0 0 0 0 0 0 0 0 0
0 0 0 0 0 0 0 0 0 0 0 0 0 0 0 0 0 0 0 0 0 0 0 0 0 0 0 0 0 0 0 0 0 0 0 0 0 0
0 0 0 0 0 0 0 0 0 0 0 0 0 0 0 0 0 0 0 0 0 0 0 0 0 0 0 0 0 0 0 0 0 0 0 0 0 0
0 0 0 0 0 0 0 0 0 0 0 0 0 0 0 0 0 0 0 0 0 0 0 0 0 0 0 0 0 0 0 0 0 0 0 0 0 0
Wind_Speed
7 8 7 5 5 4 4 4 4 4 4 5 5 4 4 3 6 6 6 9 8 7 7 7 6 6 6 7 7 7 7 7 7 8 8 9 9 10
5 5 6 6 4 5 4 4 4 5 4 3 4 4 3 4 6 6 5 9 9 9 8 8 8 8 8 8 8 8 9 9 9 9 9 9 9 10
7 7 8 6 5 5 5 4 5 5 5 3 3 3 4 6 4 5 6 7 8 12 10 9 9 9 9 9 9 9 9 9 9 9 10 10 10 10
8 8 8 6 6 6 5 6 5 4 6 5 4 5 7 6 6 6 7 7 6 10 12 10 10 10 10 10 10 10 10 10 10 10 10 10 11 11
8 9 9 8 8 6 6 6 6 6 5 6 6 4 5 6 6 7 8 5 8 7 12 12 12 11 11 11 11 11 10 10 10 10 10 10 11 11
8 8 9 9 9 8 7 7 7 6 6 7 6 5 5 6 6 7 7 7 8 7 6 6 9 13 13 13 13 12 11 11 11 11 11 11 11 11
8 8 8 7 5 5 6 6 7 7 7 7 7 6 6 5 6 6 7 6 6 7 6 7 7 8 10 13 14 13 12 11 11 11 11 11 11 12
8 8 8 8 8 7 6 5 5 8 8 7 7 6 6 6 5 6 6 7 7 5 6 7 7 7 7 7 7 10 11 11 11 11 11 12 12 12
8 8 8 7 10 10 10 10 9 9 7 8 9 8 6 6 5 8 6 7 7 6 5 8 7 8 8 6 8 9 10 11 11 11 12 12 12 12
8 8 8 8 8 9 9 10 10 10 10 10 8 8 7 5 5 7 7 8 9 8 7 9 8 8 8 7 8 11 11 11 12 12 12 12 12 13
9 9 9 9 7 7 9 9 9 8 7 7 6 5 3 3 5 7 8 9 9 7 6 8 8 8 8 8 6 11 12 13 13 13 13 13 13 12
8 8 8 9 6 10 10 9 10 8 7 6 7 8 8 8 8 9 9 9 8 8 5 6 8 8 8 7 6 6 8 11 14 15 14 14 12 10
7 7 6 9 9 9 10 9 7 6 6 7 7 7 7 6 7 8 7 7 8 8 5 4 7 7 8 8 8 7 8 8 8 9 12 13 13 11
6 5 3 8 9 8 7 5 4 4 7 6 6 5 5 5 4 5 6 7 7 9 8 7 7 7 9 10 10 8 8 8 8 9 9 8 11 14
4 0 2 6 7 6 7 5 4 5 5 6 5 5 4 4 4 4 6 6 8 9 8 8 9 8 9 10 11 10 10 9 9 9 9 8 8 8
5 3 4 4 3 2 3 5 4 4 4 5 4 4 4 4 4 5 5 5 6 7 8 8 9 10 10 11 11 11 10 10 8 8 8 9 9 9
4 3 3 3 3 3 2 2 2 3 3 3 4 4 4 4 4 4 5 6 7 7 6 5 7 8 10 11 11 11 10 10 9 8 8 10 9 9
3 2 2 2 2 2 2 2 2 2 2 2 3 3 4 4 4 4 5 6 7 7 7 6 6 6 8 8 8 10 9 9 9 8 9 10 10 9
3 2 1 1 1 1 1 1 1 1 1 2 3 3 3 4 4 4 5 5 6 7 7 6 6 7 9 10 7 6 8 9 9 9 9 9 10 9
1 1 1 0 0 0 0 1 1 1 1 2 2 2 3 4 4 5 5 6 6 7 7 6 6 6 8 10 10 8 8 9 9 9 9 9 10 10
2 2 2 2 1 1 1 2 2 2 2 2 2 3 3 4 4 5 5 5 6 7 7 6 5 6 7 7 9 8 7 6 8 8 10 10 10 10
4 4 3 3 3 3 3 2 2 2 2 3 3 3 4 4 5 6 6 6 6 6 7 7 6 6 7 8 9 10 10 8 8 11 13 12 9 10
5 5 4 4 4 3 3 3 4 3 3 3 3 4 4 4 5 5 6 6 6 7 7 7 7 6 7 8 9 9 11 11 9 8 7 8 12 14
Wind_Direction
221 214 227 222 226 233 235 243 249 241 212 186 205 189 205 198 157 206 202 174 193 208 216 223 229 234 239 244 248 252 254 256 259 261 263 265 266 267
228 226 225 220 211 220 227 237 253 266 265 199 198 194 199 209 180 221 223 165 195 208 219 226 233 237 241 245 248 250 252 252 254 257 258 259 260 262
215 211 217 227 221 218 218 228 237 246 253 238 210 176 195 247 194 223 227 223 206 196 210 223 233 239 242 244 246 246 248 248 250 253 255 256 257 260
216 214 214 210 216 238 231 231 233 245 254 250 231 201 204 222 224 236 239 228 239 184 198 217 231 238 241 242 242 243 245 247 251 253 255 257 258 260
216 216 218 216 218 224 231 234 229 225 238 249 240 222 217 217 222 231 241 247 257 205 197 212 221 231 237 239 239 241 244 248 252 253 255 257 258 260
217 220 222 220 221 223 225 233 240 241 231 245 245 227 223 212 230 240 236 220 242 253 237 229 216 218 229 233 233 236 241 246 248 250 252 254 256 258
215 220 224 228 240 239 246 229 227 235 236 236 242 238 230 220 233 244 251 253 240 247 254 250 235 235 225 223 225 229 234 239 243 247 250 252 253 255
215 220 222 213 216 223 255 272 271 248 253 256 250 248 248 245 251 261 262 259 258 234 247 262 261 260 257 254 203 202 219 231 239 244 247 250 252 254
220 221 231 214 206 217 214 223 238 246 256 265 267 269 262 249 254 256 256 267 275 282 265 267 262 260 261 254 185 206 224 233 239 244 248 251 253 256
225 224 231 234 216 221 225 221 225 222 221 230 250 260 266 274 255 256 268 259 255 253 253 265 270 268 270 267 202 209 226 236 242 246 250 253 255 258
229 227 228 231 212 203 231 237 237 234 216 217 236 251 288 278 265 260 255 256 259 254 232 254 271 276 274 269 242 208 221 231 240 246 250 252 255 261
224 227 226 235 208 190 224 236 241 242 245 214 214 229 236 235 225 241 256 259 265 267 255 252 270 280 278 270 270 257 239 234 235 241 244 246 249 262
226 224 215 193 205 200 224 243 249 259 252 245 234 229 225 226 223 225 241 258 265 267 277 265 272 276 274 281 280 274 273 272 260 251 240 237 236 242
236 237 202 164 184 198 215 240 255 255 256 253 250 246 244 242 240 242 239 248 259 270 284 286 275 276 279 279 281 281 278 277 276 277 277 254 238 236
243 223 97 146 174 192 212 219 226 238 248 252 254 258 263 267 266 255 247 244 253 258 259 260 265 271 272 275 280 283 284 281 277 277 280 279 279 274
233 189 152 155 195 228 179 192 216 242 256 258 261 265 267 261 254 260 262 257 256 258 247 246 253 261 265 271 276 278 280 282 284 283 284 282 281 277
195 201 200 184 191 196 200 208 209 206 227 253 263 268 270 270 267 265 267 269 267 270 270 253 243 246 256 266 271 272 279 282 285 290 286 282 281 282
158 187 197 204 207 205 205 200 201 217 242 250 253 257 263 272 278 277 273 272 275 278 282 285 285 277 269 258 249 272 278 283 289 288 283 282 284 284
151 181 194 201 195 205 215 217 234 229 246 256 260 267 275 278 279 278 279 278 279 283 285 285 283 281 282 283 274 243 281 289 288 286 284 285 287 289
118 130 137 125 108 173 284 295 298 295 277 280 289 293 287 282 280 278 279 287 292 295 294 293 291 293 292 295 297 288 258 275 287 291 293 291 287 284
83 70 52 45 39 33 16 5 8 4 352 329 322 315 307 300 299 301 299 303 293 292 296 298 307 292 282 283 282 285 286 258 268 281 293 293 292 292
65 64 58 51 45 39 28 16 14 11 357 344 340 328 317 312 307 302 302 301 296 295 297 297 297 289 283 281 285 291 294 294 273 253 253 262 282 294
53 51 49 47 46 40 29 22 16 9 1 348 341 335 329 321 313 308 306 301 301 301 301 300 301 295 289 286 288 292 296 298 296 293 282 252 244 255